EHI
0 0 0 0 0 0 1 3 15 38 68 87 83 57 26 8 4 2 1 0 0 0 0 0 1 1 1 0 0 0 0 0 0 0 0 0 0 0 0 0 0 0 0
0 0 0 0 0 1 2 4 14 34 58 75 75 57 32 15 9 6 3 1 0 0 0 0 0 0 0 0 0 0 0 0 0 0 0 0 0 0 0 0 0 0 0
0 0 0 0 0 1 2 5 11 22 36 48 51 45 35 22 13 9 5 2 1 1 1 0 0 0 1 1 0 0 0 0 0 0 0 0 0 0 0 0 0 0 0
0 0 0 0 0 1 1 3 5 8 12 19 22 23 22 17 9 6 5 3 3 5 3 1 1 1 1 1 0 0 0 0 0 0 0 0 0 0 0 0 0 0 0
0 0 0 0 0 0 0 1 1 1 1 3 5 6 7 5 2 2 3 3 6 8 5 2 2 3 3 2 1 0 0 0 0 0 0 0 0 0 0 0 0 0 0
0 0 0 0 0 0 0 0 0 0 0 0 1 1 1 0 0 0 1 3 6 8 6 4 5 6 7 5 1 0 0 0 0 0 0 0 0 0 0 0 0 0 0
0 0 0 0 0 0 0 0 0 0 0 0 0 0 0 0 0 0 0 1 4 6 5 4 5 8 8 4 1 0 0 0 0 0 0 0 0 0 0 0 0 0 0
0 0 0 0 0 0 0 1 1 1 1 0 0 0 0 0 0 0 0 0 1 2 2 2 4 5 4 1 0 0 0 0 0 0 0 0 0 0 0 0 0 0 0
0 0 0 0 0 1 2 3 3 4 2 1 0 0 0 0 0 0 0 0 0 0 1 1 1 1 1 0 0 0 0 0 0 0 0 0 0 0 0 0 0 0 0
0 0 0 0 1 5 12 15 13 9 6 2 0 0 0 0 0 0 0 0 0 0 0 0 0 0 0 0 0 0 0 0 0 0 0 0 0 0 0 0 0 0 0
0 0 0 0 4 13 27 34 29 22 14 6 1 0 0 0 0 0 0 0 0 0 0 0 0 0 0 0 0 0 0 0 0 0 0 0 0 0 0 0 0 0 0
0 0 0 1 5 19 38 48 43 33 24 14 5 1 0 0 0 0 0 0 0 0 0 0 0 0 0 0 0 0 0 0 0 0 0 0 0 0 0 0 0 0 0
0 0 0 0 4 18 40 51 48 39 30 22 12 6 2 0 0 0 0 0 0 0 0 0 0 0 0 0 0 0 0 0 0 0 0 0 0 0 0 0 0 0 0
0 0 0 0 2 14 34 49 50 43 35 27 19 11 5 1 0 0 0 0 0 0 0 0 0 0 0 0 0 0 0 0 0 0 0 0 0 0 0 0 0 0 0
0 0 0 0 1 10 29 48 54 45 36 31 26 21 14 8 3 1 0 0 0 0 0 0 0 0 0 0 0 0 0 0 0 0 0 0 0 0 0 0 0 0 0
0 0 0 1 4 14 33 51 54 45 39 42 46 41 32 22 11 3 0 0 0 0 0 0 0 0 0 0 0 0 0 0 0 0 0 0 0 0 0 0 0 0 0
0 0 1 5 12 25 39 49 51 48 48 58 67 62 49 35 20 8 3 1 0 0 0 0 0 0 0 0 0 0 0 0 0 0 0 0 0 0 0 0 0 0 0
0 0 2 8 16 24 31 36 40 41 45 56 64 61 50 39 27 17 10 5 2 1 1 0 0 0 0 0 0 0 0 0 0 0 0 0 0 0 0 0 0 0 0
0 0 3 7 11 12 14 17 20 22 26 31 36 36 33 30 25 20 17 10 5 3 2 1 1 1 1 0 0 0 0 0 0 0 0 0 0 0 0 0 0 0 0
0 0 2 4 4 3 3 4 5 6 7 9 11 11 12 15 16 15 15 13 9 6 2 1 2 2 1 0 0 0 0 0 0 0 0 0 0 0 0 0 0 0 0
0 0 1 1 1 1 1 0 1 1 1 1 2 1 2 4 7 8 9 9 9 7 3 1 2 2 1 0 0 0 0 0 0 0 0 0 0 0 0 0 0 0 0
0 0 0 0 0 0 0 0 0 0 0 0 0 0 0 1 2 3 3 3 4 5 3 1 2 3 1 0 0 0 0 0 0 0 0 0 0 0 0 0 0 0 0
0 0 0 0 0 0 0 0 0 0 0 0 0 0 0 0 0 1 1 0 1 1 1 2 2 3 2 0 0 0 0 0 0 0 0 0 0 0 0 0 0 0 0
0 0 0 0 0 0 0 0 0 0 0 0 0 0 0 0 0 0 0 0 0 0 0 1 2 1 1 0 0 0 0 0 0 0 0 0 0 0 0 0 0 0 0
0 0 0 0 0 0 0 0 0 0 0 0 0 0 0 0 0 0 0 0 0 0 0 0 0 0 0 0 0 0 0 0 0 0 0 0 0 0 0 0 0 0 0
0 0 0 0 0 0 0 0 0 0 0 0 0 0 0 0 0 0 0 0 0 0 0 0 0 0 0 0 0 0 0 0 0 0 0 0 0 0 0 0 0 0 0
Wind_Speed
7 6 6 5 5 5 6 7 8 9 9 8 8 7 7 7 7 7 9 10 10 10 9 7 9 8 8 9 10 8 8 7 7 6 5 4 3 4 4 4 5 7 6
9 8 7 5 4 3 2 4 6 8 9 8 7 6 6 6 6 6 8 10 11 11 10 11 9 9 7 9 10 9 8 7 7 7 5 5 4 3 3 3 2 4 5
10 10 8 6 5 4 4 3 4 6 8 8 6 4 4 4 5 7 7 9 11 11 10 11 10 9 9 8 10 11 11 9 10 8 6 4 4 5 5 5 4 3 2
10 9 8 6 5 5 4 5 5 6 7 8 8 8 6 6 7 6 6 9 11 11 11 11 10 9 8 8 9 10 10 10 9 8 6 4 3 4 5 5 5 5 4
11 10 8 6 5 6 5 5 6 6 6 7 6 6 6 4 4 4 6 7 8 10 11 12 11 10 8 8 8 9 10 9 9 8 7 6 3 6 4 5 6 6 6
11 10 8 7 6 6 6 5 6 6 6 6 6 6 5 5 5 6 6 5 5 6 9 10 10 10 8 8 7 8 10 9 10 9 8 7 6 6 4 4 6 6 6
11 10 9 8 7 7 6 6 6 6 6 6 6 6 5 6 6 6 6 5 5 5 8 8 9 9 9 8 6 6 8 10 10 10 8 7 7 5 5 4 3 4 5
10 9 9 9 8 8 8 8 7 7 7 6 6 5 6 4 4 5 5 5 4 5 6 8 8 8 9 8 7 5 6 8 10 10 9 6 6 5 6 5 4 4 5
9 9 9 9 9 9 9 9 9 8 7 7 6 5 4 5 5 5 5 4 4 4 6 7 8 8 9 9 8 5 6 6 7 7 8 7 6 6 7 7 6 5 5
8 9 9 9 10 9 10 10 9 8 8 7 6 4 5 5 4 4 5 5 5 5 7 8 8 9 9 9 7 6 5 5 5 4 7 7 6 6 7 8 7 7 6
6 7 8 9 9 10 10 11 10 10 9 8 7 7 6 6 6 5 5 5 5 6 8 8 9 9 9 9 8 7 7 6 5 5 7 8 8 7 7 7 8 8 7
5 5 6 8 10 11 11 11 11 11 9 8 8 7 6 6 6 6 6 6 6 6 7 8 9 9 9 9 9 8 8 6 5 5 7 8 7 9 8 7 8 8 8
8 7 6 7 9 11 11 12 11 11 10 10 9 8 8 7 7 6 6 7 7 7 8 7 8 9 9 9 9 8 8 7 7 6 7 8 8 9 8 9 8 8 7
10 9 7 7 7 10 11 11 10 10 9 9 9 8 8 7 7 7 7 8 8 8 8 8 8 8 9 10 10 9 9 9 8 8 9 9 9 10 9 8 10 9 9
11 9 7 6 6 8 9 9 9 9 9 9 8 8 7 7 7 7 7 8 8 8 9 8 8 8 7 8 9 9 10 10 10 10 10 9 10 10 8 7 8 9 8
9 7 5 3 4 6 7 7 7 7 8 8 7 6 6 6 7 7 8 8 8 8 8 9 9 8 6 5 6 7 8 9 10 9 9 9 11 12 13 13 11 9 10
6 3 2 3 3 5 6 6 5 5 6 6 5 6 7 7 7 7 7 7 8 9 9 10 9 9 7 7 8 9 8 8 9 10 9 8 8 10 10 12 15 14 15
6 6 7 8 7 7 6 6 5 3 2 2 3 5 5 6 7 7 8 8 8 7 8 8 8 8 7 8 7 7 10 9 9 10 10 10 10 9 10 9 10 12 13
8 8 8 9 10 9 8 7 7 5 4 2 1 2 4 6 7 8 8 8 8 7 8 8 8 8 7 8 7 8 8 8 9 8 8 9 10 8 8 9 9 9 9
7 7 8 10 10 9 8 9 8 7 6 5 3 2 1 4 6 7 7 7 7 8 8 8 8 8 7 8 8 10 7 7 6 5 6 6 7 4 8 9 8 9 8
6 6 7 8 8 8 8 9 9 9 7 6 5 4 2 1 3 4 5 6 7 7 8 9 8 8 6 7 8 8 6 5 4 4 3 2 4 5 7 7 5 4 3
4 4 6 7 7 7 8 9 8 6 6 6 6 6 5 3 2 1 3 4 6 7 8 8 8 6 6 5 6 6 7 5 4 3 2 2 5 5 6 4 2 3 3
3 3 5 6 5 5 6 7 6 5 5 6 6 6 6 5 4 2 2 2 4 5 6 7 7 6 5 5 5 6 6 6 4 1 4 4 6 6 5 4 5 5 3
3 3 3 3 4 3 4 4 4 4 5 5 6 5 6 6 6 4 2 1 2 3 4 5 5 5 5 4 4 4 5 6 6 4 6 6 5 3 4 6 5 4 3
4 4 3 2 1 2 3 3 3 3 4 4 4 4 5 5 5 5 5 4 4 3 1 1 2 3 3 2 2 3 2 3 3 5 5 5 5 5 4 4 4 3 4
6 5 5 4 2 3 3 3 2 2 4 4 4 3 3 3 3 4 5 10 9 9 9 8 5 5 5 3 1 1 2 4 4 3 4 4 3 3 3 3 3 3 3
Wind_Direction
212 196 200 209 219 224 231 226 223 211 197 184 188 194 201 210 208 206 202 197 204 208 201 206 210 199 195 194 193 181 181 179 177 161 154 144 144 108 115 93 91 87 77
198 190 185 175 172 162 185 201 199 194 189 189 191 200 199 209 207 204 205 201 201 203 205 206 208 208 207 201 196 185 184 184 191 187 172 165 165 180 155 143 111 108 99
205 184 175 162 152 140 136 151 167 174 184 181 178 176 178 189 194 202 204 203 202 202 206 212 211 216 211 204 198 192 188 188 203 207 199 192 175 160 176 175 179 141 125
194 177 170 160 148 127 128 140 153 165 174 179 189 195 204 211 213 210 202 202 204 204 206 211 211 216 216 209 202 198 198 194 199 212 234 248 157 177 160 189 193 184 183
183 171 167 156 141 129 132 136 144 155 167 187 191 207 217 223 210 208 211 207 202 207 206 209 207 207 207 205 201 200 204 202 203 204 206 213 200 240 189 167 180 191 199
174 167 160 160 150 141 141 144 148 147 161 180 192 205 200 204 202 208 211 206 197 203 207 204 202 198 191 188 190 199 207 214 213 212 210 207 208 225 215 190 177 183 178
173 173 174 177 174 168 163 160 158 159 169 185 195 196 195 212 216 214 213 212 202 201 204 199 199 191 183 172 171 196 204 216 221 219 224 227 230 233 232 234 195 178 164
182 186 189 187 186 183 178 175 173 171 174 188 194 201 189 213 226 223 222 220 214 207 198 195 191 179 171 162 165 184 203 214 218 219 223 232 236 244 245 250 241 219 194
198 202 201 198 196 193 189 186 181 179 182 189 189 201 201 211 222 218 214 218 214 191 182 181 172 165 162 159 160 171 189 205 216 215 216 223 229 236 245 250 248 242 238
219 214 211 207 204 198 193 189 188 184 186 189 189 187 204 203 215 212 205 207 197 181 172 174 169 165 161 157 156 159 170 185 204 216 217 217 226 229 231 237 244 246 243
257 237 223 217 208 199 193 189 189 190 188 189 187 192 195 197 198 205 200 199 195 188 185 185 180 176 172 168 163 160 163 175 193 213 225 225 223 225 224 225 230 236 235
292 267 247 228 213 204 197 193 192 191 190 190 191 197 192 193 204 203 200 200 196 199 200 193 188 185 182 175 172 170 170 176 197 216 229 235 229 231 227 221 225 227 230
288 276 256 237 223 211 201 196 195 192 187 188 192 194 197 202 209 209 203 205 203 202 202 201 199 194 189 186 189 187 182 188 201 217 232 239 234 234 230 224 228 229 228
287 281 270 252 230 217 204 197 190 188 186 191 196 201 204 204 210 212 209 211 209 208 208 207 207 205 200 199 199 198 198 201 209 219 229 236 233 235 234 230 233 229 223
282 279 274 263 228 210 198 188 183 182 187 196 203 206 207 203 210 212 213 214 215 218 213 211 213 207 208 212 210 207 208 212 215 221 228 237 243 245 242 239 235 229 222
291 290 284 262 211 191 181 174 178 183 192 201 208 206 213 204 208 213 217 212 212 218 217 218 217 211 216 187 198 227 219 223 226 230 233 235 239 242 235 236 238 233 225
330 345 26 83 122 137 150 159 167 172 196 205 206 208 212 209 209 210 210 207 210 216 218 218 216 216 206 175 195 218 242 238 238 239 239 238 240 240 244 228 222 226 232
28 56 76 84 86 93 101 106 114 138 182 213 220 216 220 216 211 209 206 207 211 206 214 217 213 213 199 184 206 211 238 245 244 243 245 242 242 237 238 235 224 224 221
50 65 74 82 79 79 84 90 88 83 74 46 334 253 228 223 216 212 209 207 207 205 209 208 208 211 198 186 208 222 239 244 247 246 247 248 246 234 219 229 226 227 228
57 70 78 80 77 76 82 85 80 71 57 39 21 3 271 237 228 223 217 209 209 210 209 208 210 211 212 180 200 227 240 242 243 240 241 240 253 240 202 224 223 225 223
51 66 77 77 77 82 84 80 71 60 47 38 37 34 18 296 250 229 217 210 208 210 211 208 206 208 210 183 196 222 247 248 251 240 233 217 189 209 200 223 227 224 222
61 69 84 84 79 78 80 77 68 57 47 40 37 33 28 22 31 210 203 204 201 201 202 200 193 195 192 202 194 213 238 270 255 244 222 150 155 169 172 191 156 151 193
93 94 105 102 91 71 61 67 64 42 35 35 35 31 35 40 39 53 128 173 189 192 192 193 185 182 185 186 201 221 224 228 249 149 86 118 150 162 167 158 165 181 193
150 147 151 132 102 69 42 36 30 13 17 27 28 33 33 47 53 50 64 131 168 184 190 192 185 176 179 188 198 211 202 195 199 162 130 130 142 161 130 153 178 196 188
179 184 192 178 99 8 354 5 355 344 3 21 32 46 52 54 60 58 37 31 55 35 23 157 158 164 159 102 348 277 240 213 179 157 159 166 168 171 173 180 179 178 180
188 192 206 223 260 321 347 12 16 341 357 24 32 39 59 70 80 93 81 49 55 60 57 49 48 74 63 62 71 105 97 105 141 188 183 179 179 180 182 186 188 193 202